Location: ???????
(55.4362°N, 38.1183°E)
Time: 20:31:04
(UTC+00:00)

USA 267 - Pass Details

Date: 30 October 2021
Orbit: 1101 x 1107 km, 123.0° (Epoch: 27 November)

Event Time Altitude Azimuth Distance (km) Brightness Sun altitude
Exits shadow 15:17:45 - 127° (SE) 3,560 5.5 -12.4°
Reaches altitude 10° 15:19:21 10° 130° (SE) 2,956 5.1 -12.6°
Maximum altitude 15:25:49 62° 211° (SSW) 1,228 3.7 -13.5°
Drops below altitude 10° 15:32:18 10° 292° (WNW) 2,965 6.6 -14.5°
Sets 15:34:50 0° 295° (WNW) 3,925 7.3 -14.8°
